This demonstration page uses our WeatherBlox Daily Observations layout. Learn more.

Left ArrowRight Arrow

44.8408, -93.29828

Hourly Observations for April 26, 2022

Temp ( °F °C ) Dew Point ( °F °C ) Humidity (%) Winds ( mph kmh ) Pressure ( in mb ) Visibility ( mi km ) Precip ( " mm )
12:38 am 00:38 Cloudy 30 -1.1 19 -7.2 64 64 NW 14 22 30.35 1028 10 16 0.00 0.00
12:53 am 00:53 Cloudy 30 -1.1 20 -6.7 66 66 WNW 13 20 30.33 1027 10 16 0.00 0.00
1:33 am 01:33 Cloudy 30 -1.1 18 -7.8 61 61 NNW 13 20 30.35 1028 10 16 0.00 0.00
1:53 am 01:53 Cloudy 30 -1.1 18 -7.8 61 61 NW 12 19 30.33 1027 10 16 0.00 0.00
2:32 am 02:32 Cloudy 30 -1.1 19 -7.2 64 64 NW 15 24 30.35 1028 10 16 0.00 0.00
2:53 am 02:53 Cloudy 30 -1.1 19 -7.2 64 64 NW 14 22 30.34 1027 10 16 0.00 0.00
3:53 am 03:53 Cloudy 28 -2.2 19 -7.2 69 69 WNW 13 20 30.35 1028 10 16 0.00 0.00
4:53 am 04:53 Cloudy 28 -2.2 19 -7.2 69 69 NW 14 22 30.36 1028 10 16 0.00 0.00
5:53 am 05:53 Cloudy 28 -2.2 19 -7.2 69 69 NW 14 22 30.37 1028 10 16 0.00 0.00
6:53 am 06:53 Cloudy 28 -2.2 20 -6.7 72 72 NNW 12 19 30.38 1029 10 16 0.00 0.00
7:53 am 07:53 Cloudy 28 -2.2 18 -7.8 66 66 NW 14 22 30.40 1029 10 16 0.00 0.00
8:53 am 08:53 Cloudy 29 -1.7 19 -7.2 66 66 NW 15 24 30.41 1030 10 16 0.00 0.00
9:53 am 09:53 Cloudy 30 -1.1 20 -6.7 66 66 NNW 9 15 30.42 1030 10 16 0.00 0.00
10:53 am 10:53 Cloudy 31 -0.6 19 -7.2 61 61 NW 15 24 30.42 1030 10 16 0.00 0.00
11:32 am 11:32 Mostly Cloudy 32 0 18 -7.8 56 56 NW 13 20 30.43 1030 10 16 0.00 0.00
11:53 am 11:53 Mostly Cloudy 35 1.7 19 -7.2 52 52 WNW 13 20 30.40 1030 10 16 0.00 0.00
12:53 pm 12:53 Mostly Cloudy 38 3.3 19 -7.2 46 46 NW 13 20 30.38 1029 10 16 0.00 0.00
1:53 pm 13:53 Mostly Cloudy 39 3.9 20 -6.7 46 46 WNW 10 17 30.37 1029 10 16 0.00 0.00
2:53 pm 14:53 Partly Cloudy 39 3.9 20 -6.7 46 46 NW 10 17 30.36 1028 10 16 0.00 0.00
3:53 pm 15:53 Partly Cloudy 41 5 20 -6.7 43 43 WNW 7 11 30.34 1028 10 16 0.00 0.00
4:53 pm 16:53 Mostly Sunny 43 6.1 21 -6.1 42 42 VRB 7 11 30.33 1027 10 16 0.00 0.00
5:53 pm 17:53 Mostly Sunny 43 6.1 19 -7.2 38 38 NW 9 15 30.33 1027 10 16 0.00 0.00
6:53 pm 18:53 Mostly Sunny 42 5.6 19 -7.2 40 40 NNW 6 9 30.34 1027 10 16 0.00 0.00
7:53 pm 19:53 Mostly Sunny 40 4.4 19 -7.2 43 43 NNW 7 11 30.34 1028 10 16 0.00 0.00
8:53 pm 20:53 Mostly Clear 38 3.3 19 -7.2 46 46 NE 9 15 30.35 1028 10 16 0.00 0.00
9:53 pm 21:53 Clear 36 2.2 18 -7.8 48 48 ENE 10 17 30.36 1028 10 16 0.00 0.00
10:53 pm 22:53 Clear 35 1.7 18 -7.8 50 50 ENE 13 20 30.37 1028 10 16 0.00 0.00
11:53 pm 23:53 Clear 33 0.6 17 -8.3 52 52 NE 9 15 30.37 1029 10 16 0.00 0.00

Powered by AerisWeather